EW2500 Weather Reports


time (UTC)temp
C
wind
direction
speed
KPH
gust
KPH
rain 1hr
cm
rain 24hr
cm
rain mn
cm
humidity
%
barometer
mb
20260506143049 18 182 0.0 6.4 0.00 0.00 0.00 76 1007.2
20260506142601 18 147 0.0 6.4 0.00 0.00 0.00 77 1007.2
20260506142052 18 106 0.0 3.2 0.00 0.00 0.00 77 1007.3
20260506141605 18 289 0.0 3.2 0.00 0.00 0.00 78 1007.4
20260506141114 18 198 0.0 4.8 0.00 0.00 0.00 78 1007.3
20260506140053 18 172 0.0 4.8 0.00 0.00 0.00 77 1007.4
20260506135608 18 271 0.0 8.0 0.00 0.00 0.00 78 1007.1
20260506135059 18 143 0.0 8.0 0.00 0.00 0.00 78 1007.2
20260506134550 17 228 0.0 4.8 0.00 0.00 0.00 79 1007.3
20260506134042 17 115 0.0 3.2 0.00 0.00 0.00 80 1007.4
20260506133616 17 338 0.0 3.2 0.00 0.00 0.00 80 1007.3
20260506133107 17 286 0.0 1.6 0.00 0.00 0.00 80 1007.3
20260506132557 17 178 0.0 1.6 0.00 0.00 0.00 82 1007.3
20260506132048 17 234 0.0 3.2 0.00 0.00 0.00 83 1007.2
20260506131539 16 258 0.0 8.0 0.00 0.00 0.00 83 1007.2
20260506131113 16 350 0.0 8.0 0.00 0.00 0.00 83 1007.1
20260506130601 16 75 0.0 3.2 0.00 0.00 0.00 84 1007.1
20260506130052 16 85 0.0 3.2 0.00 0.00 0.00 84 1007.3
20260506125543 16 282 0.0 1.6 0.00 0.00 0.00 84 1007.2
20260506125116 16 277 0.0 1.6 0.00 0.00 0.00 84 1007.2
20260506124546 16 269 0.0 1.6 0.00 0.00 0.00 84 1007.2
20260506124057 16 273 0.0 1.6 0.00 0.00 0.00 84 1007.4
20260506123550 16 70 0.0 1.6 0.00 0.00 0.00 85 1007.3
20260506123042 16 100 0.0 1.6 0.00 0.00 0.00 86 1007.5
20260506122553 16 108 0.0 6.4 0.00 0.00 0.00 86 1007.6
20260506122046 16 79 0.0 8.0 0.00 0.00 0.00 86 1007.7
20260506121557 15 299 1.6 8.0 0.00 0.00 0.00 86 1007.8
20260506121050 15 217 0.0 3.2 0.00 0.00 0.00 87 1007.9
20260506120542 15 36 0.0 3.2 0.00 0.00 0.00 87 1007.8
20260506120115 15 123 0.0 1.6 0.00 0.00 0.00 88 1007.8
20260506115607 15 275 0.0 9.7 0.00 0.00 0.00 88 1007.7
20260506115058 15 125 0.0 9.7 0.00 0.00 0.00 89 1007.8
20260506114548 15 165 0.0 1.6 0.00 0.00 0.00 90 1007.8
20260506114040 14 77 0.0 1.6 0.00 0.00 0.00 91 1007.7
20260506113553 14 5 0.0 1.6 0.00 0.00 0.00 91 1007.5
20260506113044 13 309 0.0 3.2 0.00 0.00 0.00 92 1007.5
20260506112559 13 157 0.0 3.2 0.00 0.00 0.00 92 1007.6
20260506112050 13 138 0.0 0.0 0.00 0.00 0.00 92 1007.6
20260506111543 13 136 0.0 0.0 0.00 0.00 0.00 93 1007.8
20260506111051 13 134 0.0 0.0 0.00 0.00 0.00 93 1007.9
20260506110542 13 225 0.0 0.0 0.00 0.00 0.00 93 1007.9
20260506110057 13 104 0.0 0.0 0.00 0.00 0.00 93 1007.8
20260506105549 12 104 0.0 0.0 0.00 0.00 0.00 93 1007.8
20260506105042 12 104 0.0 1.6 0.00 0.00 0.00 93 1007.9
20260506104556 12 104 0.0 1.6 0.00 0.00 0.00 93 1007.9
20260506104048 12 101 0.0 0.0 0.00 0.00 0.00 93 1007.8
20260506103602 12 101 0.0 0.0 0.00 0.00 0.00 93 1007.8
20260506103054 12 101 0.0 0.0 0.00 0.00 0.00 93 1007.7
20260506102543 12 101 0.0 0.0 0.00 0.00 0.00 93 1007.7
20260506102058 12 101 0.0 0.0 0.00 0.00 0.00 92 1007.6
20260506101552 12 101 0.0 0.0 0.00 0.00 0.00 92 1007.7
20260506101042 12 101 0.0 0.0 0.00 0.00 0.00 92 1007.7
20260506100555 12 101 0.0 0.0 0.00 0.00 0.00 92 1007.8
20260506100048 12 101 0.0 0.0 0.00 0.00 0.00 92 1007.6
20260506095541 12 101 0.0 0.0 0.00 0.00 0.00 92 1007.6
20260506095054 12 101 0.0 0.0 0.00 0.00 0.00 92 1007.5
20260506094546 12 101 0.0 0.0 0.00 0.00 0.00 92 1007.5
20260506094100 12 101 0.0 0.0 0.00 0.00 0.00 92 1007.6
20260506093551 12 101 0.0 0.0 0.00 0.00 0.00 92 1007.6
20260506093042 12 101 0.0 0.0 0.00 0.00 0.00 92 1007.5
20260506092554 12 101 0.0 0.0 0.00 0.00 0.00 91 1007.5
20260506092045 12 101 0.0 0.0 0.00 0.00 0.00 91 1007.5
20260506091558 12 101 0.0 0.0 0.00 0.00 0.00 91 1007.6
20260506091051 12 101 0.0 0.0 0.00 0.00 0.00 91 1007.6
20260506090543 12 101 0.0 0.0 0.00 0.00 0.00 91 1007.6
20260506090117 12 101 0.0 0.0 0.00 0.00 0.00 91 1007.6
20260506085545 12 101 0.0 0.0 0.00 0.00 0.00 91 1007.7
20260506085117 12 100 0.0 0.0 0.00 0.00 0.00 91 1007.7
20260506084548 12 101 0.0 0.0 0.00 0.00 0.00 91 1007.7
20260506084041 12 101 0.0 0.0 0.00 0.00 0.00 90 1007.7
20260506083553 12 101 0.0 0.0 0.00 0.00 0.00 90 1007.8
20260506083046 12 101 0.0 0.0 0.00 0.00 0.00 90 1007.8
20260506082539 12 101 0.0 0.0 0.00 0.00 0.00 90 1007.8
20260506082053 12 101 0.0 0.0 0.00 0.00 0.00 90 1007.8
20260506081605 12 101 0.0 0.0 0.00 0.00 0.00 90 1007.9
20260506081057 12 101 0.0 0.0 0.00 0.00 0.00 89 1007.8
20260506080548 12 101 0.0 0.0 0.00 0.00 0.00 89 1007.7
20260506073120 13 82 0.0 0.0 0.00 0.00 0.00 88 1008.0
20260506072549 13 81 0.0 0.0 0.00 0.00 0.00 88 1008.0
20260506072041 13 80 0.0 0.0 0.00 0.00 0.00 88 1008.0
20260506071556 13 80 0.0 0.0 0.00 0.00 0.00 88 1007.9
20260506071048 13 80 0.0 0.0 0.00 0.00 0.00 87 1007.9
20260506070541 13 80 0.0 0.0 0.00 0.00 0.00 87 1007.9
20260506062105 14 116 0.0 0.0 0.00 0.00 0.00 85 1007.9
20260506061556 14 207 0.0 1.6 0.00 0.00 0.00 85 1007.9
20260506061045 14 207 0.0 1.6 0.00 0.00 0.00 85 1007.9
20260506060559 14 86 0.0 1.6 0.00 0.00 0.00 85 1007.9
20260506060111 14 130 0.0 3.2 0.00 0.00 0.00 84 1007.9
20260506051048 15 44 0.0 0.0 0.00 0.00 0.00 81 1008.2
20260506050601 15 42 0.0 0.0 0.00 0.00 0.00 81 1008.3
20260506045057 15 42 0.0 1.6 0.00 0.00 0.00 80 1008.4
20260506044549 15 155 0.0 1.6 0.00 0.00 0.00 80 1008.4
20260506044041 15 123 0.0 1.6 0.00 0.00 0.00 80 1008.4
20260506043553 15 126 0.0 0.0 0.00 0.00 0.00 79 1008.4
20260506043043 15 126 0.0 0.0 0.00 0.00 0.00 79 1008.3
20260506042554 15 126 0.0 0.0 0.00 0.00 0.00 78 1008.3
20260506042048 15 128 0.0 0.0 0.00 0.00 0.00 78 1008.3
20260506041541 15 128 0.0 0.0 0.00 0.00 0.00 78 1008.3
20260506041053 15 161 0.0 0.0 0.00 0.00 0.00 78 1008.3
20260506040544 16 161 0.0 0.0 0.00 0.00 0.00 77 1008.3
20260506040056 16 161 0.0 0.0 0.00 0.00 0.00 77 1008.3
20260506035546 16 161 0.0 0.0 0.00 0.00 0.00 77 1008.3
20260506035058 16 344 0.0 0.0 0.00 0.00 0.00 76 1008.4
20260506034551 16 341 0.0 1.6 0.00 0.00 0.00 76 1008.3
20260506034041 16 290 0.0 1.6 0.00 0.00 0.00 76 1008.4
20260506033556 16 80 0.0 1.6 0.00 0.00 0.00 76 1008.4
20260506033109 16 71 0.0 3.2 0.00 0.00 0.00 76 1008.3
20260506032602 16 71 0.0 3.2 0.00 0.00 0.00 76 1008.3
20260506032053 16 121 0.0 0.0 0.00 0.00 0.00 75 1008.2
20260506031545 16 121 0.0 0.0 0.00 0.00 0.00 75 1008.2
20260506031116 16 121 0.0 0.0 0.00 0.00 0.00 75 1008.2
20260506030545 16 117 0.0 0.0 0.00 0.00 0.00 75 1008.3
20260506030057 16 117 0.0 0.0 0.00 0.00 0.00 75 1008.2
20260506025547 16 117 0.0 0.0 0.00 0.00 0.00 74 1008.2
20260506025059 16 118 0.0 0.0 0.00 0.00 0.00 74 1008.3
20260506024549 16 120 0.0 0.0 0.00 0.00 0.00 74 1008.2
20260506024041 16 121 0.0 0.0 0.00 0.00 0.00 74 1008.1
20260506023553 16 121 0.0 1.6 0.00 0.00 0.00 74 1008.1
20260506023043 16 146 0.0 1.6 0.00 0.00 0.00 73 1008.2
20260506022558 16 192 0.0 1.6 0.00 0.00 0.00 73 1008.2
20260506022049 17 219 0.0 0.0 0.00 0.00 0.00 73 1008.2
20260506021541 17 219 0.0 3.2 0.00 0.00 0.00 72 1008.2
20260506021116 17 222 0.0 3.2 0.00 0.00 0.00 72 1008.2
20260506020546 17 59 0.0 1.6 0.00 0.00 0.00 72 1008.1
20260506020059 17 44 0.0 1.6 0.00 0.00 0.00 72 1008.1
20260506015549 17 204 0.0 0.0 0.00 0.00 0.00 71 1008.1
20260506015101 17 98 0.0 0.0 0.00 0.00 0.00 70 1008.0
20260506014554 17 156 0.0 4.8 0.00 0.00 0.00 71 1007.9
20260506014047 17 157 0.0 4.8 0.00 0.00 0.00 70 1007.9
20260506013540 17 60 0.0 4.8 0.00 0.00 0.00 69 1007.8
20260506013052 17 55 0.0 4.8 0.00 0.00 0.00 69 1007.8
20260506012545 17 55 0.0 3.2 0.00 0.00 0.00 69 1007.7
20260506012059 18 19 0.0 3.2 0.00 0.00 0.00 69 1007.6
20260506011550 18 167 0.0 3.2 0.00 0.00 0.00 68 1007.6
20260506011042 18 130 0.0 4.8 0.00 0.00 0.00 68 1007.4
20260506010551 18 206 0.0 4.8 0.00 0.00 0.00 67 1007.4
20260506010045 18 119 0.0 1.6 0.00 0.00 0.00 67 1007.4
20260506005600 18 112 0.0 4.8 0.00 0.00 0.00 67 1007.4
20260506005052 18 138 0.0 9.7 0.00 0.00 0.00 67 1007.3
20260506004544 18 83 1.6 9.7 0.00 0.00 0.00 67 1007.2
20260506004055 18 150 0.0 6.4 0.00 0.00 0.00 67 1007.1
20260506003548 18 134 0.0 4.8 0.00 0.00 0.00 67 1007.1
20260506003102 18 78 0.0 1.6 0.00 0.00 0.00 66 1007.1
20260506002553 18 146 0.0 4.8 0.00 0.00 0.00 66 1006.9
20260506002043 18 131 0.0 4.8 0.00 0.00 0.00 66 1006.8
20260506001556 18 154 0.0 1.6 0.00 0.00 0.00 66 1006.8
20260506001046 19 154 0.0 1.6 0.00 0.00 0.00 65 1006.8
20260506000557 19 146 0.0 9.7 0.00 0.00 0.00 65 1006.8
20260506000049 19 148 0.0 9.7 0.00 0.00 0.00 64 1006.6
20260505235541 19 153 0.0 6.4 0.00 0.00 0.00 64 1006.6
20260505235054 20 157 1.6 6.4 0.00 0.00 0.00 63 1006.6
20260505234544 20 137 0.0 1.6 0.00 0.00 0.00 63 1006.5
20260505234056 20 250 0.0 0.0 0.00 0.00 0.00 63 1006.4
20260505233546 20 250 0.0 0.0 0.00 0.00 0.00 63 1006.4
20260505233059 20 302 0.0 0.0 0.00 0.00 0.00 62 1006.4
20260505232550 20 287 0.0 3.2 0.00 0.00 0.00 62 1006.3
20260505232041 20 304 0.0 9.7 0.00 0.00 0.00 61 1006.2
20260505231554 20 88 0.0 9.7 0.00 0.00 0.00 61 1006.1
20260505231107 20 191 1.6 14.5 0.00 0.00 0.00 60 1006.1
20260505230559 21 128 0.0 14.5 0.00 0.00 0.00 60 1006.0
20260505230049 21 107 1.6 11.3 0.00 0.00 0.00 59 1005.9
20260505225619 21 182 1.6 11.3 0.00 0.00 0.00 59 1006.0
20260505225050 21 98 0.0 3.2 0.00 0.00 0.00 59 1006.0
20260505224543 21 181 0.0 4.8 0.00 0.00 0.00 58 1005.8
20260505224055 21 115 0.0 4.8 0.00 0.00 0.00 58 1005.8
20260505223547 21 159 0.0 4.8 0.00 0.00 0.00 58 1005.8
20260505223058 21 140 0.0 4.8 0.00 0.00 0.00 57 1005.8
20260505222613 22 340 0.0 3.2 0.00 0.00 0.00 57 1005.7
20260505222044 22 151 0.0 1.6 0.00 0.00 0.00 57 1005.8
20260505221557 22 331 0.0 3.2 0.00 0.00 0.00 57 1005.9
20260505221051 22 130 0.0 4.8 0.00 0.00 0.00 56 1005.9
20260505220602 22 250 0.0 4.8 0.00 0.00 0.00 56 1006.0
20260505220055 22 138 0.0 8.0 0.00 0.00 0.00 56 1005.9
20260505215545 22 98 0.0 8.0 0.00 0.00 0.00 56 1005.8
20260505215058 23 136 0.0 6.4 0.00 0.00 0.00 56 1005.8
20260505214549 23 92 0.0 6.4 0.00 0.00 0.00 57 1005.7
20260505214039 23 65 0.0 8.0 0.00 0.00 0.00 56 1005.8
20260505213552 23 185 0.0 8.0 0.00 0.00 0.00 55 1005.6
20260505213042 23 355 0.0 6.4 0.00 0.00 0.00 56 1005.7
20260505212555 23 89 0.0 6.4 0.00 0.00 0.00 55 1005.6
20260505212046 23 147 0.0 3.2 0.00 0.00 0.00 55 1005.6
20260505211539 23 111 0.0 3.2 0.00 0.00 0.00 56 1005.6
20260505211054 23 44 0.0 3.2 0.00 0.00 0.00 56 1005.6
20260505210545 23 59 0.0 4.8 0.00 0.00 0.00 55 1005.5
20260505210058 23 164 1.6 8.0 0.00 0.00 0.00 54 1005.4
20260505205549 23 182 0.0 8.0 0.00 0.00 0.00 55 1005.4
20260505205041 23 200 0.0 8.0 0.00 0.00 0.00 55 1005.4
20260505204550 23 175 0.0 8.0 0.00 0.00 0.00 55 1005.7
20260505204101 23 238 0.0 1.6 0.00 0.00 0.00 55 1005.7
20260505203613 23 97 0.0 3.2 0.00 0.00 0.00 54 1005.7
20260505203105 23 117 0.0 3.2 0.00 0.00 0.00 54 1005.7
20260505202618 24 155 0.0 3.2 0.00 0.00 0.00 55 1005.7
20260505202047 24 109 0.0 12.9 0.00 0.00 0.00 54 1005.7
20260505201539 24 148 0.0 12.9 0.00 0.00 0.00 53 1005.7
20260505201051 25 261 0.0 4.8 0.00 0.00 0.00 53 1005.8
20260505200605 24 179 0.0 4.8 0.00 0.00 0.00 54 1005.8
20260505200118 24 163 0.0 6.4 0.00 0.00 0.00 53 1005.7
20260505195549 25 107 0.0 11.3 0.00 0.00 0.00 52 1005.8
20260505195040 25 61 0.0 11.3 0.00 0.00 0.00 54 1005.9
20260505194552 24 193 0.0 12.9 0.00 0.00 0.00 53 1006.0
20260505194045 25 117 0.0 12.9 0.00 0.00 0.00 52 1006.0
20260505193620 25 75 0.0 8.0 0.00 0.00 0.00 53 1006.1
20260505193050 25 19 0.0 8.0 0.00 0.00 0.00 53 1006.0
20260505192540 25 220 0.0 4.8 0.00 0.00 0.00 53 1006.0
20260505192048 25 134 0.0 8.0 0.00 0.00 0.00 53 1006.0
20260505191539 25 191 0.0 8.0 0.00 0.00 0.00 52 1006.1
20260505191053 25 81 0.0 8.0 0.00 0.00 0.00 51 1006.1
20260505190543 26 109 1.6 8.0 0.00 0.00 0.00 50 1006.2
20260505190118 26 44 0.0 4.8 0.00 0.00 0.00 50 1006.2
20260505185549 26 142 0.0 8.0 0.00 0.00 0.00 51 1006.4
20260505185101 26 136 0.0 8.0 0.00 0.00 0.00 50 1006.4
20260505184612 26 238 0.0 11.3 0.00 0.00 0.00 50 1006.4
20260505184045 26 140 0.0 11.3 0.00 0.00 0.00 50 1006.4
20260505183556 26 108 0.0 9.7 0.00 0.00 0.00 47 1006.5
20260505183049 26 96 0.0 4.8 0.00 0.00 0.00 49 1006.5
20260505182601 26 102 0.0 4.8 0.00 0.00 0.00 47 1006.6
20260505182114 26 109 0.0 17.7 0.00 0.00 0.00 47 1006.5
20260505181546 26 272 0.0 17.7 0.00 0.00 0.00 49 1006.6
20260505181100 25 268 0.0 8.0 0.00 0.00 0.00 48 1006.7
20260505180551 26 117 0.0 6.4 0.00 0.00 0.00 49 1006.7
20260505180042 25 159 0.0 16.1 0.00 0.00 0.00 50 1006.7
20260505175615 25 103 0.0 16.1 0.00 0.00 0.00 49 1006.8
20260505175045 26 232 0.0 11.3 0.00 0.00 0.00 49 1006.9
20260505174552 25 211 1.6 11.3 0.00 0.00 0.00 49 1006.7
20260505174041 25 60 0.0 9.7 0.00 0.00 0.00 48 1006.7
20260505173555 26 319 1.6 6.4 0.00 0.00 0.00 48 1006.7
20260505173046 26 190 0.0 0.0 0.00 0.00 0.00 49 1006.8
20260505172559 26 279 0.0 0.0 0.00 0.00 0.00 49 1006.9
20260505172111 25 217 0.0 6.4 0.00 0.00 0.00 51 1006.9
20260505171543 25 244 0.0 6.4 0.00 0.00 0.00 49 1006.9
20260505171056 25 161 0.0 6.4 0.00 0.00 0.00 50 1007.0
20260505170547 25 242 0.0 9.7 0.00 0.00 0.00 49 1007.0
20260505170100 25 135 0.0 9.7 0.00 0.00 0.00 48 1007.1
20260505165551 25 153 0.0 4.8 0.00 0.00 0.00 50 1007.1
20260505165042 25 332 0.0 4.8 0.00 0.00 0.00 50 1007.2
20260505164616 25 206 0.0 4.8 0.00 0.00 0.00 50 1007.2
20260505164046 25 200 0.0 4.8 0.00 0.00 0.00 52 1007.3
20260505163600 25 206 0.0 4.8 0.00 0.00 0.00 51 1007.3
20260505163050 24 98 0.0 4.8 0.00 0.00 0.00 54 1007.5
20260505162544 24 5 0.0 4.8 0.00 0.00 0.00 52 1007.7
20260505162056 24 296 0.0 11.3 0.00 0.00 0.00 55 1007.8
20260505161548 23 182 1.6 11.3 0.00 0.00 0.00 53 1007.8
20260505161059 24 309 0.0 4.8 0.00 0.00 0.00 54 1007.8
20260505160550 23 190 0.0 11.3 0.00 0.00 0.00 54 1007.9
20260505153047 23 319 1.6 9.7 0.00 0.00 0.00 54 1008.1
20260505152559 23 209 0.0 3.2 0.00 0.00 0.00 57 1008.1
20260505152053 23 279 0.0 4.8 0.00 0.00 0.00 55 1008.2
20260505151543 22 270 0.0 4.8 0.00 0.00 0.00 56 1008.3
20260505151057 22 155 0.0 4.8 0.00 0.00 0.00 57 1008.3
20260505150547 22 119 0.0 3.2 0.00 0.00 0.00 57 1008.4